[[[{"header":{"parameterUnit":"kt","parameterCategory":2,"dx":1,"dy":1,"la1":30.253999710083008,"la2":30.299108505249023,"lo1":-89.0895004272461,"lo2":-89.04439544677734,"nx":28,"ny":28,"refTime":"2022-10-22T21:00:00:Z","depth":0,"parameterNumber":1,"parameterNumberName":"U-component_of_WINDS"},"data":[-4.3035,-4.3155,-4.3203,-4.3363,-4.3433,-4.3551,-4.3609,-4.3689,-4.3765,-4.3912,-4.4005,-4.4068,-4.4165,-4.4289,-4.4393,-4.4419,-4.4459,-4.4466,-4.4495,-4.4422,-4.4415,-4.4408,-4.4382,-4.4474,-4.4474,-4.4563,-4.4564,-4.4565,-4.2974,-4.3044,-4.3143,-4.3272,-4.3357,-4.3379,-4.3484,-4.3554,-4.366,-4.3755,-4.3851,-4.3985,-4.4098,-4.4195,-4.4312,-4.4371,-4.4388,-4.4399,-4.4394,-4.4409,-4.4333,-4.4304,-4.4382,-4.4382,-4.4382,-4.4382,-4.4382,-4.4382,-4.2875,-4.2945,-4.3051,-4.316,-4.3238,-4.3324,-4.3401,-4.3475,-4.3574,-4.3702,-4.3743,-4.3864,-4.397,-4.4137,-4.4206,-4.4302,-4.43,-4.4327,-4.4334,-4.4339,-4.4337,-4.4198,-4.4325,-4.4325,-4.4325,-4.4325,-4.4325,0,-4.2817,-4.2853,-4.2952,-4.3065,-4.3147,-4.324,-4.3334,-4.3383,-4.3478,-4.3556,-4.3673,-4.3749,-4.39,-4.4016,-4.4138,-4.4205,-4.4238,-4.4248,-4.4267,-4.4247,-4.4213,-4.423,-4.4102,-4.4244,-4.4243,-4.4243,-4.4243,-4.4242,-4.2719,-4.2797,-4.2933,-4.2996,-4.3059,-4.3161,-4.3231,-4.3309,-4.3381,-4.3509,-4.3569,-4.3687,-4.3785,-4.3966,-4.4055,-4.4169,-4.4185,-4.4233,-4.4203,-4.4181,-4.4185,-4.4178,-4.4186,-4.4237,-4.4238,-4.4238,-4.4239,0,-4.266,-4.274,-4.2876,-4.3005,-4.3039,-4.3117,-4.3227,-4.3302,-4.3368,-4.348,-4.3511,-4.3615,-4.3729,-4.3812,-4.396,-4.3999,-4.4128,-4.4143,-4.4091,-4.4098,-4.4148,-4.4142,-4.4301,-4.4325,-4.4232,-4.4233,-4.4233,0,-4.2608,-4.2707,-4.2821,-4.2896,-4.301,-4.3086,-4.3196,-4.3263,-4.3357,-4.3446,-4.3497,-4.358,-4.3672,-4.3768,-4.3826,-4.3947,-4.3975,-4.4012,-4.4026,-4.4007,-4.4002,-4.4045,-4.404,-4.4057,-4.4056,-4.4055,-4.4055,0,-4.2505,-4.2684,-4.2806,-4.286,-4.3008,-4.3064,-4.3128,-4.3234,-4.3303,-4.3406,-4.3452,-4.3567,-4.363,-4.3719,-4.3792,-4.3768,-4.3942,-4.3925,-4.398,-4.3978,-4.4013,-4.401,-4.4131,-4.4054,-4.4053,-4.4053,-4.4053,0,-4.2475,-4.2577,-4.2743,-4.2867,-4.2911,-4.2993,-4.311,-4.3199,-4.3307,-4.3349,-4.3431,-4.3475,-4.3588,-4.3564,-4.3721,-4.3668,-4.3728,-4.3774,-4.3779,-4.3793,-4.3763,-4.3819,-4.3928,-4.3941,-4.3807,-4.3805,-4.3804,0,-4.2334,-4.2524,-4.2591,-4.2748,-4.2847,-4.2896,-4.2988,-4.3082,-4.3146,-4.324,-4.3311,-4.3418,-4.3418,-4.3462,-4.353,-4.3607,-4.3676,-4.3601,-4.3735,-4.3738,-4.3702,-4.3804,-4.3798,-4.3895,-4.3779,-4.3781,-4.3783,0,-4.2235,-4.2413,-4.2437,-4.2501,-4.2638,-4.2722,-4.2829,-4.2951,-4.3009,-4.3111,-4.3202,-4.3356,-4.3361,-4.3435,-4.3484,-4.3549,-4.3632,-4.3547,-4.355,-4.3557,-4.3774,-4.3767,-4.3783,-4.365,-4.3653,-4.3655,-4.3763,0,-4.2169,-4.2275,-4.2343,-4.2484,-4.2562,-4.2666,-4.2752,-4.2823,-4.286,-4.2925,-4.3062,-4.3163,-4.3289,-4.333,-4.3368,-4.3492,-4.3484,-4.3489,-4.3471,-4.3537,-4.3575,-4.359,-4.3407,-4.3407,-4.3407,-4.3407,0,0,-4.2013,-4.2167,-4.2238,-4.2344,-4.2414,-4.2463,-4.2566,-4.2641,-4.279,-4.2837,-4.2828,-4.3058,-4.3141,-4.3297,-4.3325,-4.3377,-4.3407,-4.3381,-4.3505,-4.3516,-4.3526,-4.3564,-4.3579,-4.3407,-4.3407,-4.3407,-4.3407,0,-4.2007,-4.2088,-4.2189,-4.2269,-4.239,-4.2454,-4.2478,-4.2607,-4.2653,-4.2788,-4.2827,-4.292,-4.3103,-4.3185,-4.325,-4.3364,-4.3389,-4.3397,-4.3428,-4.3502,-4.3513,-4.3522,-4.3562,-4.3575,-4.3407,-4.3407,-4.3407,0,-4.1923,-4.2017,-4.2076,-4.2238,-4.2317,-4.2419,-4.2421,-4.2529,-4.2605,-4.2656,-4.2788,-4.2856,-4.2973,-4.311,-4.3176,-4.3169,-4.3367,-4.3321,-4.3324,-4.3332,-4.3409,-4.3421,-4.3432,-4.3285,-4.3284,-4.3283,0,0,-4.1906,-4.2005,-4.2132,-4.2243,-4.229,-4.2387,-4.245,-4.2494,-4.2598,-4.2639,-4.2726,-4.2826,-4.2933,-4.3002,-4.3108,-4.3246,-4.3276,-4.3302,-4.3308,-4.3312,-4.3323,-4.3401,-4.3413,-4.328,-4.328,-4.328,0,0,-4.1898,-4.2048,-4.2067,-4.2207,-4.2303,-4.2436,-4.2501,-4.2528,-4.2631,-4.2629,-4.271,-4.274,-4.287,-4.2936,-4.2885,-4.3102,-4.3083,-4.3097,-4.3055,-4.3063,-4.3069,-4.305,-4.2901,0,0,0,0,0,-4.1936,-4.2029,-4.2045,-4.2081,-4.2287,-4.2426,-4.2453,-4.2521,-4.2505,-4.2555,-4.2633,-4.2656,-4.2925,-4.2882,-4.2917,-4.2973,-4.3241,-4.3248,-4.3254,-4.3233,-4.3241,-4.3248,0,0,0,0,0,0,-4.1951,-4.1995,-4.2043,-4.2178,-4.2225,-4.2424,-4.2412,-4.2433,-4.2502,-4.2504,-4.264,-4.266,-4.2721,-4.2869,-4.29,-4.2951,-4.2891,-4.3244,-4.325,-4.3255,-4.3236,-4.3243,-4.3248,0,0,0,0,0,-4.1963,-4.1998,-4.231,-4.2177,-4.2218,-4.2331,-4.2409,-4.2426,-4.2481,-4.2602,-4.2622,-4.2526,-4.2721,-4.2752,-4.2887,-4.2935,-4.287,-4.2882,-4.3248,-4.3252,-4.3256,-4.3239,0,0,0,0,0,0,-4.1972,-4.2016,-4.232,-4.2335,-4.2147,-4.2321,-4.235,-4.242,-4.2575,-4.2597,-4.2491,-4.2491,-4.2722,-4.2745,-4.2769,-4.2925,-4.2853,-4.2865,-4.2872,-4.3251,-4.3255,-4.3258,0,0,0,0,0,0,-4.1997,-4.2028,-4.2328,-4.2285,-4.2296,-4.2312,-4.2338,-4.2464,-4.2577,-4.2457,-4.2461,-4.2489,-4.2687,-4.2742,-4.276,-4.2954,-4.284,-4.2851,-4.2859,-4.2864,-4.3254,-4.3257,0,0,0,0,0,0,-4.2012,-4.2038,-4.2282,-4.229,-4.23,-4.2473,-4.2424,-4.2631,-4.2539,-4.2449,-4.2533,-4.253,-4.2683,-4.2702,-4.2754,-4.2939,-4.295,-4.2841,-4.2848,-4.2853,-4.2857,0,0,0,0,0,0,0,-4.2023,-4.1828,-4.2231,-4.2294,-4.2303,-4.2474,-4.2478,-4.2482,-4.2538,-4.2536,-4.2534,-4.2531,-4.2778,-4.279,-4.2802,-4.2927,0,0,-4.284,-4.2845,0,0,0,0,0,0,0,0,-4.1818,-4.1826,-4.2231,-4.2234,-4.2237,-4.2474,-4.2478,-4.2481,-4.2538,-4.2536,-4.2534,-4.2532,-4.2781,-4.2791,-4.2801,0,0,0,0,0,0,0,0,0,0,0,0,0,0,0,-4.2232,-4.2234,0,-4.2475,-4.2478,-4.248,-4.2538,-4.2536,-4.2534,-4.2533,-4.2784,-4.2792,-4.28,0,0,0,0,0,0,0,0,0,0,0,0,0,0,0,0,0,0,0,0,0,0,0,0,0,0,0,0,0,0,0,0,0,0,0,0,0,0,0,0,0,0,0,0,0,0,0,0,0,0,0,0,0,0,0,0,0,0,0,0,0,0,0,0,0,0,0,0,0]}],[{"header":{"parameterUnit":"kt","parameterCategory":2,"dx":1,"dy":1,"la1":30.253999710083008,"la2":30.299108505249023,"lo1":-89.0895004272461,"lo2":-89.04439544677734,"nx":28,"ny":28,"refTime":"2022-10-22T21:00:00:Z","depth":0,"parameterNumber":2,"parameterNumberName":"V-component_of_WINDS"},"data":[6.9013,6.9098,6.9076,6.9162,6.9157,6.9211,6.9223,6.9237,6.9242,6.9304,6.9336,6.9323,6.9319,6.9351,6.9383,6.9376,6.9389,6.9435,6.9418,6.9235,6.9208,6.9182,6.9158,6.944,6.944,6.9608,6.9609,6.961,6.8879,6.8875,6.8916,6.8939,6.8972,6.8915,6.8929,6.896,6.9011,6.9019,6.9049,6.9102,6.9141,6.912,6.9153,6.9191,6.9164,6.9201,6.9194,6.9194,6.8999,6.8975,6.9222,6.9222,6.9222,6.9222,6.9222,6.9222,6.8629,6.8681,6.8682,6.8725,6.8731,6.8747,6.8792,6.8774,6.8813,6.8845,6.8812,6.8868,6.8871,6.89,6.8904,6.8946,6.8901,6.8933,6.894,6.8947,6.8957,6.8711,6.8952,6.8951,6.8951,6.895,6.8949,0,6.8436,6.8414,6.8451,6.8482,6.8512,6.8534,6.8549,6.8577,6.8521,6.8556,6.8603,6.8626,6.8673,6.8713,6.8739,6.8736,6.8676,6.867,6.8691,6.8703,6.8712,6.8702,6.8381,6.8661,6.8658,6.8657,6.8655,6.8654,6.8176,6.8242,6.8233,6.8262,6.8264,6.8313,6.8336,6.8282,6.831,6.8321,6.837,6.8411,6.844,6.852,6.8496,6.853,6.8499,6.8608,6.8504,6.8515,6.8494,6.8488,6.8492,6.8627,6.8631,6.8633,6.8636,0,6.8031,6.7994,6.8088,6.8072,6.807,6.8141,6.8126,6.8177,6.8153,6.8219,6.8231,6.8193,6.824,6.8198,6.8244,6.822,6.8333,6.8306,6.833,6.832,6.8409,6.8399,6.8715,6.8751,6.8465,6.8468,6.8471,0,6.7792,6.788,6.7818,6.7875,6.7971,6.7913,6.801,6.7998,6.7999,6.805,6.7977,6.8027,6.7965,6.8009,6.7974,6.8059,6.807,6.8054,6.8042,6.8057,6.8058,6.8065,6.8049,6.8021,6.802,6.8018,6.8017,0,6.7563,6.7636,6.7728,6.7738,6.7729,6.7774,6.7772,6.7772,6.7796,6.7821,6.7835,6.7869,6.7886,6.7913,6.7866,6.7796,6.7972,6.7866,6.7954,6.7956,6.799,6.7987,6.8284,6.8015,6.8015,6.8014,6.8014,0,6.7361,6.7387,6.753,6.7518,6.7539,6.7602,6.7628,6.7672,6.7678,6.7659,6.7678,6.7622,6.7697,6.7594,6.7694,6.7615,6.7636,6.7629,6.7635,6.7633,6.7517,6.7682,6.7974,6.8,6.7639,6.7636,6.7634,0,6.7106,6.724,6.7189,6.7326,6.738,6.7291,6.7359,6.7367,6.7347,6.739,6.7368,6.7418,6.7333,6.7341,6.7398,6.7376,6.7479,6.7362,6.7418,6.7421,6.7413,6.7683,6.7733,6.7917,6.7593,6.7598,6.7601,0,6.6902,6.689,6.6919,6.6925,6.6926,6.6973,6.7053,6.7088,6.7119,6.7138,6.7199,6.7271,6.7207,6.7224,6.7181,6.7242,6.7408,6.7165,6.7164,6.7205,6.7571,6.7618,6.7649,6.7365,6.737,6.7374,6.7569,0,6.6595,6.6658,6.6734,6.6755,6.6784,6.6869,6.6821,6.6858,6.6813,6.6789,6.6883,6.6878,6.6914,6.6941,6.6898,6.7052,6.7017,6.695,6.6841,6.7021,6.7083,6.7109,6.6752,6.6749,6.6746,6.6743,0,0,6.6357,6.6445,6.6387,6.6461,6.6481,6.6385,6.6479,6.6488,6.6509,6.6524,6.6464,6.6564,6.6562,6.6679,6.6732,6.675,6.6771,6.6709,6.6937,6.6959,6.6979,6.7047,6.7075,6.6738,6.6737,6.6736,6.6735,0,6.6232,6.6236,6.633,6.6337,6.6344,6.6314,6.6337,6.6327,6.6315,6.6408,6.6325,6.6376,6.6458,6.6465,6.6479,6.6696,6.6628,6.6712,6.6842,6.691,6.6936,6.6958,6.703,6.7058,6.6728,6.6729,6.6729,0,6.6018,6.6011,6.6052,6.6097,6.61,6.616,6.6035,6.6106,6.6148,6.6037,6.613,6.6121,6.6127,6.6247,6.6299,6.6245,6.6501,6.6414,6.6431,6.6433,6.6496,6.6528,6.6555,6.6189,6.6188,6.6186,0,0,6.5917,6.5976,6.5949,6.6066,6.6074,6.6031,6.6059,6.6015,6.6023,6.6027,6.6012,6.6023,6.6069,6.6101,6.6142,6.6282,6.6275,6.6349,6.6375,6.6396,6.641,6.6479,6.6509,6.618,6.618,6.6179,0,0,6.5868,6.5841,6.5794,6.5923,6.5935,6.5915,6.5987,6.5928,6.596,6.5944,6.5874,6.5874,6.5985,6.5979,6.5899,6.6101,6.5995,6.6013,6.61,6.6131,6.6156,6.6152,6.5768,0,0,0,0,0,6.5714,6.5844,6.5802,6.5816,6.5871,6.5939,6.5946,6.589,6.5815,6.5874,6.5852,6.5779,6.5921,6.5849,6.5864,6.5951,6.6097,6.6112,6.6126,6.627,6.6303,6.6331,0,0,0,0,0,0,6.5719,6.5738,6.5798,6.5785,6.5796,6.5934,6.5795,6.5783,6.5808,6.5792,6.5785,6.5779,6.5732,6.5837,6.5851,6.5936,6.5762,6.6103,6.6116,6.6127,6.6281,6.6308,6.6332,0,0,0,0,0,6.5723,6.5738,6.5841,6.5782,6.5793,6.575,6.5789,6.5779,6.5796,6.5762,6.5753,6.5752,6.5736,6.5744,6.5845,6.593,6.5752,6.5758,6.6111,6.6121,6.613,6.6294,0,0,0,0,0,0,6.5726,6.5728,6.5841,6.5842,6.5729,6.5741,6.5741,6.5775,6.5763,6.5756,6.5725,6.5713,6.5741,6.5746,6.5753,6.5932,6.5744,6.5749,6.5753,6.6119,6.6126,6.6133,0,0,0,0,0,0,6.572,6.573,6.5842,6.5777,6.577,6.5733,6.5733,6.5811,6.5765,6.5726,6.5716,6.572,6.573,6.5748,6.5753,6.5877,6.5737,6.5743,6.5746,6.5749,6.6125,6.6131,0,0,0,0,0,0,6.5723,6.5731,6.5776,6.5771,6.5765,6.5771,6.58,6.586,6.571,6.5728,6.5695,6.5688,6.5734,6.5738,6.5754,6.5876,6.5877,6.5737,6.5741,6.5744,6.5745,0,0,0,0,0,0,0,6.5725,6.5683,6.5836,6.5766,6.576,6.5851,6.5851,6.5852,6.5709,6.5703,6.5697,6.5691,6.5706,6.5712,6.5718,6.5876,0,0,6.5737,6.5739,0,0,0,0,0,0,0,0,6.5678,6.5681,6.5836,6.5836,6.5836,6.5851,6.5851,6.5852,6.5708,6.5703,6.5698,6.5694,6.5708,6.5712,6.5717,0,0,0,0,0,0,0,0,0,0,0,0,0,0,0,6.5836,6.5836,0,6.5851,6.5851,6.5852,6.5707,6.5703,6.5699,6.5695,6.5709,6.5713,6.5717,0,0,0,0,0,0,0,0,0,0,0,0,0,0,0,0,0,0,0,0,0,0,0,0,0,0,0,0,0,0,0,0,0,0,0,0,0,0,0,0,0,0,0,0,0,0,0,0,0,0,0,0,0,0,0,0,0,0,0,0,0,0,0,0,0,0,0,0,0]}]]]